Weather History for Fallon NAS, NV

Change the Weather History Date:

Saturday, August 31, 2013

  Actual Average Record
Temperature  
Mean Temperature 76 °F -  
Max Temperature 96 °F 85 °F 99 °F (1996)
Min Temperature 57 °F 48 °F 36 °F (1932)
Cooling Degree Days 11    
Growing Degree Days 26 (Base 50)    
Moisture  
Dew Point 32 °F    
Average Humidity 22    
Maximum Humidity 42    
Minimum Humidity 9    
Precipitation  
Precipitation 0.00 in - - ()
Sea Level Pressure  
Sea Level Pressure 29.96 in    
Wind  
Wind Speed 4 mph (SSW)    
Max Wind Speed 10 mph    
Max Gust Speed -    
Visibility 9 miles    
Events      
Averages and records for this station are not official NWS values.
T = Trace of Precipitation, MM = Missing Value Source: NWS Daily Summary

Daily Weather History Graph

Daily Weather History Graph

Search for Another Location

Airport:

Trip Planner

Search our weather history database for the weather conditions in past years. The results will help you decide how hot, cold, wet, or windy it might be!

Date:

Astronomy

Aug. 31, 2013 Rise Set
Actual Time 6:22 AM PDT 7:26 PM PDT
Civil Twilight 5:55 AM PDT 7:54 PM PDT
Nautical Twilight 5:22 AM PDT 8:26 PM PDT
Astronomical Twilight 4:47 AM PDT 9:01 PM PDT
Moon 1:56 AM PDT (8/31) 4:27 PM PDT (8/31)
Length of Visible Light 13h 59m
Length of Day
13h 04m
Waning Crescent, 20% of the Moon is Illuminated
Aug 31
Waning Crescent
Sep 5
New
Sep 12
First Quarter
Sep 19
Full
Sep 26
Last Quarter

Hourly Weather History & Observations

Time (PDT) Temp. Dew Point Humidity Pressure Visibility Wind Dir Wind Speed Gust Speed Precip Events Conditions
12:56 AM 66.0 °F 34.0 °F 30% 30.00 in 7.0 mi SE 3.5 mph - N/A   Smoke
1:56 AM 64.0 °F 34.0 °F 33% 30.00 in 8.0 mi SW 3.5 mph - N/A   Smoke
2:56 AM 59.0 °F 36.0 °F 42% 30.00 in 8.0 mi SSE 5.8 mph - N/A   Smoke
3:56 AM 57.9 °F 35.1 °F 42% 29.99 in 10.0 mi South 3.5 mph - N/A   Smoke
4:56 AM 57.9 °F 35.1 °F 42% 29.99 in 10.0 mi South 5.8 mph - N/A   Smoke
5:56 AM 57.0 °F 27.0 °F 32% 30.00 in 10.0 mi SSE 8.1 mph - N/A   Smoke
6:56 AM 57.9 °F 28.0 °F 32% 30.01 in 8.0 mi SSE 5.8 mph - N/A   Smoke
7:56 AM 66.0 °F 30.9 °F 27% 30.01 in 8.0 mi Calm Calm - N/A   Smoke
8:56 AM 71.1 °F 35.1 °F 27% 30.02 in 10.0 mi Calm Calm - N/A   Smoke
9:01 AM 71.6 °F 33.8 °F 25% 30.12 in 10.0 mi NNW 3.5 mph - N/A   Scattered Clouds
9:56 AM 78.8 °F 28.4 °F 16% 30.02 in 9.0 mi Calm Calm - N/A   Scattered Clouds
10:56 AM 82.0 °F 27.0 °F 13% 30.01 in 10.0 mi Calm Calm - N/A   Mostly Cloudy
11:56 AM 87.1 °F 28.9 °F 12% 29.99 in 10.0 mi Variable 4.6 mph - N/A   Scattered Clouds
12:56 PM 89.1 °F 32.0 °F 13% 29.97 in 10.0 mi Variable 4.6 mph - N/A   Scattered Clouds
1:56 PM 91.9 °F 32.0 °F 12% 29.95 in 10.0 mi NNW 9.2 mph - N/A   Scattered Clouds
2:56 PM 95.0 °F 28.0 °F 9% 29.91 in 10.0 mi Variable 6.9 mph - N/A   Scattered Clouds
3:56 PM 95.0 °F 26.1 °F 9% 29.90 in 10.0 mi NW 5.8 mph - N/A   Scattered Clouds
4:56 PM 93.2 °F 28.4 °F 10% 29.88 in 7.0 mi Calm Calm - N/A   Scattered Clouds
5:56 PM 93.2 °F 30.2 °F 11% 29.88 in 7.0 mi Calm Calm - N/A   Scattered Clouds
6:56 PM 91.9 °F 28.9 °F 11% 29.87 in 8.0 mi Calm Calm - N/A   Clear
7:56 PM 86.0 °F 33.1 °F 15% 29.87 in 8.0 mi Calm Calm - N/A   Clear
8:56 PM 82.9 °F 36.0 °F 19% 29.88 in 7.0 mi WNW 10.4 mph - N/A   Clear
9:56 PM 81.0 °F 39.0 °F 22% 29.90 in 10.0 mi WNW 9.2 mph - N/A   Clear
10:56 PM 79.0 °F 39.0 °F 24% 29.91 in 10.0 mi SSW 3.5 mph - N/A   Clear
11:56 PM 75.0 °F 39.9 °F 28% 29.93 in 10.0 mi Calm Calm - N/A   Clear